This demonstration page uses our WeatherBlox Daily Observations layout. Learn more.

Left ArrowRight Arrow

41.55636, -103.73856

Hourly Observations for September 30, 2021

Temp ( °F °C ) Dew Point ( °F °C ) Humidity (%) Winds ( mph kmh ) Pressure ( in mb ) Visibility ( mi km ) Precip ( " mm )
12:58 am 00:58 Cloudy 44 6.5 36 2.4 75 75 NW 16 26 30.24 1024 10 16 0.00 0.00
1:58 am 01:58 Cloudy 43 6.3 36 2.2 75 75 NW 10 17 30.26 1025 10 16 0.00 0.00
2:58 am 02:58 Cloudy 43 6 35 1.7 74 74 NW 10 17 30.28 1025 10 16 0.00 0.00
3:58 am 03:58 Cloudy 42 5.6 34 1.3 74 74 NW 15 24 30.28 1025 10 16 0.00 0.00
4:58 am 04:58 Cloudy 41 4.8 34 1 77 77 NW 12 19 30.29 1026 10 16 0.00 0.00
5:58 am 05:58 Cloudy 42 5.5 34 1.1 74 74 NW 10 17 30.31 1026 10 16 0.00 0.00
6:58 am 06:58 Cloudy 42 5.7 34 1.1 73 73 NW 12 19 30.30 1026 10 16 0.00 0.00
7:58 am 07:58 Cloudy 43 6 35 1.4 73 73 NW 12 19 30.31 1026 10 16 0.00 0.00
8:58 am 08:58 Cloudy 44 6.7 35 1.5 70 70 NW 12 19 30.33 1027 10 16 0.00 0.00
9:58 am 09:58 Cloudy 47 8.1 34 1.2 62 62 NW 14 22 30.33 1027 10 16 0.00 0.00
10:58 am 10:58 Cloudy 50 10.2 35 1.7 56 56 NNW 9 15 30.32 1027 10 16 0.00 0.00
11:58 am 11:58 Cloudy 54 12.3 35 1.9 49 49 NNW 5 7 30.32 1027 10 16 0.00 0.00
12:58 pm 12:58 Mostly Cloudy 58 14.3 35 1.6 42 42 N 8 13 30.29 1026 10 16 0.00 0.00
1:58 pm 13:58 Sunny 60 15.5 35 1.9 40 40 NNW 8 13 30.25 1024 10 16 0.00 0.00
2:58 pm 14:58 Sunny 62 16.6 35 1.8 37 37 NNW 12 19 30.22 1023 10 16 0.00 0.00
3:58 pm 15:58 Sunny 63 17.1 35 1.6 35 35 NNE 10 17 30.21 1023 10 16 0.00 0.00
4:58 pm 16:58 Sunny 63 17.1 35 1.4 35 35 NNE 10 17 30.21 1023 10 16 0.00 0.00
5:58 pm 17:58 Sunny 61 16.2 34 1 36 36 NNE 10 17 30.22 1023 10 16 0.00 0.00
6:58 pm 18:58 Clear 55 12.6 34 1.2 46 46 NE 9 15 30.26 1025 10 16 0.00 0.00
7:58 pm 19:58 Clear 53 11.7 36 2.2 52 52 NNE 7 11 30.26 1025 10 16 0.00 0.00
8:58 pm 20:58 Clear 53 11.8 36 2.4 53 53 Calm 30.28 1025 10 16 0.00 0.00
9:58 pm 21:58 Clear 50 10 36 2 58 58 SSE 3 6 30.27 1025 10 16 0.00 0.00
10:58 pm 22:58 Clear 46 7.5 35 1.7 67 67 SSW 5 7 30.27 1025 10 16 0.00 0.00
11:58 pm 23:58 Clear 41 5.2 34 0.9 74 74 WSW 5 7 30.25 1024 10 16 0.00 0.00

Powered by AerisWeather